Location: Noordwijk
(52.2400°N, 4.4500°E)
Time: 23:35:03
(UTC+00:00)

CAS-4A - Pass Details

Date: 14 December 2022
Orbit: 514 x 531 km, 43.0° (Epoch: 05 February)

Event Time Altitude Azimuth Distance (km) Brightness Sun altitude
Exits shadow 05:23:17 18° 207° (SSW) 1,340 ? -20.2°
Maximum altitude 05:23:59 19° 193° (SSW) 1,310 ? -20.1°
Drops below altitude 10° 05:26:50 10° 148° (SSE) 1,771 ? -19.6°
Sets 05:29:34 0° 130° (SE) 2,663 ? -19.2°
